Flag for New Zealand Weather past 2 weeks in Greymouth, New Zealand

Now
43 °F

Passing clouds.


Feels Like: 37 °F
Forecast: 42 / 53 °F
Wind: 10 mph from Southwest

Location: Christchurch Airport

Current Time: May 27, 2015 at 2:22:53 AM

Latest Report: May 27, 2015 at 2:00 AM


Visibility: N/A

Pressure: 29.92 "Hg

Humidity: 76%

Dew point: 36 °F

Location of GreymouthLocation

Historic Weather in Greymouth — Graph

°F

Greymouth temperature yesterday

Maximum temperature yesterday: 52 °F (at 11:30 AM)
Minimum temperature yesterday: 39 °F (at 12:00 AM)
Average temperature yesterday: 45 °F

Past Weeks' High & Low Weather Summary

 TemperatureHumidityPressure
High72 °F (May 21, 1:00 PM)100% (May 12, 3:00 AM)30.21 "Hg (May 12, 3:00 AM)
Low25 °F (May 23, 7:00 AM)31% (May 23, 2:00 PM)29.12 "Hg (May 12, 7:00 AM)
Average48 °F72%29.71 "Hg
* Reported May 12 1:00 AM — May 27 1:00 AM, Greymouth, Weather by CustomWeather, © 2015

Note: Actual official high and low records may vary slightly from our data, if they occured in-between our weather recording intervals... More about our weather records

Advertising

Greymouth weather history for previous 24 hours

 ConditionsComfort  
Time TempWeatherWind HumidityBarometerVisibility
1:00 AM
Wed, May 27
43 °FPassing clouds.8 mph76%29.92 "HgN/A
12:30 AM43 °FPassing clouds.8 mph76%29.92 "HgN/A
12:00 AM43 °FPassing clouds.8 mph76%29.89 "HgN/A
11:30 PM
Tue, May 26
45 °FOvercast.9 mph71%29.89 "HgN/A
11:00 PM45 °FPassing clouds.7 mph71%29.89 "HgN/A
10:30 PM45 °FPassing clouds.10 mph71%29.89 "HgN/A
10:00 PM45 °FPassing clouds.7 mph71%29.86 "HgN/A
9:30 PM43 °FQuite cool.8 mph71%29.86 "HgN/A
9:00 PM45 °FPassing clouds.10 mph66%29.86 "HgN/A
8:30 PM46 °FPassing clouds.14 mph62%29.83 "HgN/A
8:00 PM48 °FPassing clouds.16 mph58%29.83 "HgN/A
7:30 PM48 °FOvercast.16 mph58%29.83 "HgN/A
7:00 PM48 °FPassing clouds.17 mph62%29.80 "HgN/A
6:30 PM48 °FPassing clouds.20 mph58%29.80 "HgN/A
6:00 PM48 °FPassing clouds.15 mph58%29.80 "HgN/A
5:30 PM48 °FOvercast.12 mph54%29.80 "HgN/A
5:00 PM48 °FOvercast.12 mph54%29.77 "HgN/A
4:30 PM50 °FPassing clouds.13 mph50%29.77 "HgN/A
4:00 PM52 °FPartly sunny.16 mph44%29.77 "HgN/A
3:30 PM52 °FPassing clouds.16 mph44%29.77 "HgN/A
3:00 PM52 °FPartly sunny.14 mph44%29.77 "HgN/A
2:30 PM52 °FPartly sunny.14 mph44%29.77 "HgN/A
2:00 PM52 °FPartly sunny.15 mph41%29.77 "HgN/A
1:30 PM52 °FOvercast.16 mph41%29.77 "HgN/A
1:00 PM52 °FPartly sunny.16 mph41%29.77 "HgN/A
12:30 PM52 °FPartly sunny.15 mph38%29.77 "HgN/A
12:00 PM52 °FScattered clouds.14 mph35%29.80 "HgN/A
11:30 AM52 °FPartly sunny.16 mph38%29.80 "HgN/A
11:00 AM48 °FPassing clouds.12 mph43%29.80 "HgN/A
10:30 AM46 °FScattered clouds.9 mph43%29.80 "HgN/A
10:00 AM45 °FScattered clouds.9 mph46%29.80 "HgN/A
9:30 AM43 °FOvercast.9 mph46%29.80 "HgN/A
8:30 AM41 °FPartly sunny.10 mph49%29.80 "HgN/A
8:00 AM41 °FPartly sunny.9 mph49%29.80 "HgN/A
7:30 AM39 °FOvercast.8 mph52%29.77 "HgN/A
7:00 AM41 °FOvercast.8 mph45%29.77 "HgN/A
6:30 AM41 °FOvercast.9 mph45%29.77 "HgN/A
6:00 AM41 °FPassing clouds.13 mph45%29.77 "HgN/A
5:30 AM39 °FPassing clouds.12 mph52%29.77 "HgN/A
5:00 AM39 °FPassing clouds.9 mph48%29.77 "HgN/A
4:30 AM39 °FPassing clouds.12 mph52%29.77 "HgN/A
4:00 AM39 °FChilly.13 mph48%29.77 "HgN/A
3:30 AM39 °FChilly.13 mph48%29.77 "HgN/A
3:00 AM39 °FPassing clouds.12 mph48%29.77 "HgN/A
2:30 AM39 °FPassing clouds.13 mph48%29.74 "HgN/A
2:00 AM39 °FPassing clouds.13 mph48%29.74 "HgN/A
Weather by CustomWeather, © 2015

See weather overviewHow to use our weather pages